TimeMDT,TemperatureF,Dew PointF,Humidity,Sea Level PressureIn,VisibilityMPH,Wind Direction,Wind SpeedMPH,Gust SpeedMPH,PrecipitationIn,Events,Conditions,WindDirDegrees,DateUTC
12:53 AM,75.0,51.1,43,29.91,10.0,North,11.5,-,N/A,,Clear,350,2012-07-14 06:53:00
1:53 AM,75.0,50.0,41,29.91,10.0,NNW,11.5,-,N/A,,Clear,330,2012-07-14 07:53:00
2:53 AM,73.4,51.8,47,30.15,10.0,Calm,Calm,-,N/A,,Mostly Cloudy,0,2012-07-14 08:53:00
3:53 AM,71.6,53.6,53,30.15,10.0,East,4.6,-,N/A,,Clear,100,2012-07-14 09:53:00
4:53 AM,70.0,55.0,59,29.94,10.0,ESE,8.1,-,N/A,,Mostly Cloudy,110,2012-07-14 10:53:00
5:53 AM,69.1,57.9,68,29.95,10.0,SSE,3.5,-,0.00,,Mostly Cloudy,160,2012-07-14 11:53:00
6:53 AM,68.0,57.9,70,29.96,10.0,Calm,Calm,-,N/A,,Mostly Cloudy,0,2012-07-14 12:53:00
7:53 AM,71.1,59.0,66,29.97,10.0,East,6.9,-,N/A,,Overcast,100,2012-07-14 13:53:00
8:53 AM,73.9,55.9,53,29.97,10.0,ESE,12.7,-,N/A,,Partly Cloudy,110,2012-07-14 14:53:00
9:53 AM,78.1,54.0,43,29.96,10.0,East,11.5,-,N/A,,Mostly Cloudy,100,2012-07-14 15:53:00
10:53 AM,81.0,52.0,36,29.94,10.0,East,8.1,-,N/A,,Partly Cloudy,90,2012-07-14 16:53:00
11:53 AM,84.9,48.9,29,29.92,10.0,ESE,5.8,-,N/A,,Clear,110,2012-07-14 17:53:00
12:53 PM,88.0,48.0,25,29.88,10.0,Calm,Calm,-,N/A,,Scattered Clouds,0,2012-07-14 18:53:00
1:53 PM,91.0,51.1,25,29.84,10.0,WNW,16.1,23.0,N/A,,Clear,300,2012-07-14 19:53:00
2:53 PM,91.0,51.1,25,29.83,10.0,WNW,20.7,27.6,N/A,,Mostly Cloudy,300,2012-07-14 20:53:00
3:51 PM,78.8,55.4,44,30.11,5.0,West,28.8,43.7,0.00,,Haze,280,2012-07-14 21:51:00
3:53 PM,78.1,55.0,45,29.91,5.0,West,24.2,43.7,0.00,,Squalls,280,2012-07-14 21:53:00
4:53 PM,73.9,54.0,50,29.93,10.0,NNW,27.6,34.5,N/A,,Mostly Cloudy,330,2012-07-14 22:53:00
5:53 PM,78.8,51.8,39,30.14,10.0,NNW,13.8,25.3,N/A,,Scattered Clouds,330,2012-07-14 23:53:00
6:53 PM,72.0,60.1,66,29.98,10.0,ESE,19.6,-,0.00,Rain,Light Rain,110,2012-07-15 00:53:00
7:53 PM,72.0,57.0,59,29.99,10.0,SE,15.0,-,0.00,,Scattered Clouds,140,2012-07-15 01:53:00
8:53 PM,70.0,57.9,65,29.97,10.0,East,10.4,-,N/A,,Scattered Clouds,90,2012-07-15 02:53:00
9:53 PM,70.0,57.9,65,29.97,10.0,ESE,12.7,-,N/A,,Overcast,110,2012-07-15 03:53:00
10:53 PM,69.1,57.9,68,29.96,10.0,East,10.4,-,N/A,,Clear,80,2012-07-15 04:53:00
11:53 PM,69.1,55.9,63,29.94,10.0,East,9.2,-,N/A,,Clear,80,2012-07-15 05:53:00